GW0326 Weather Reports


Display with metric or nautical units.
time (UTC)temp
F
wind
direction
speed
MPH
gust
MPH
rain 1hr
in
rain 24hr
in
rain mn
in
humidity
%
barometer
mb
20260906145545 71 0 0.0 0.0 0.00 0.00 0.00 39 1026.3
20260906145045 71 0 0.0 0.0 0.00 0.00 0.00 40 1026.3
20260906144600 70 0 0.0 0.0 0.00 0.00 0.00 41 1026.3
20260906144048 70 0 0.0 0.0 0.00 0.00 0.00 41 1026.4
20260906143544 69 0 0.0 0.0 0.00 0.00 0.00 42 1026.3
20260906143104 69 0 0.0 0.0 0.00 0.00 0.00 41 1026.3
20260906142545 69 0 0.0 4.0 0.00 0.00 0.00 41 1026.3
20260906142046 69 0 0.0 4.0 0.00 0.00 0.00 40 1026.2
20260906141603 68 0 0.0 3.0 0.00 0.00 0.00 41 1026.2
20260906141044 68 0 0.0 3.0 0.00 0.00 0.00 42 1026.2
20260906140545 67 0 0.0 4.0 0.00 0.00 0.00 43 1026.2
20260906140103 66 0 0.0 4.0 0.00 0.00 0.00 44 1026.1
20260906135545 66 0 0.0 8.0 0.00 0.00 0.00 45 1026.1
20260906135045 65 0 1.0 8.0 0.00 0.00 0.00 45 1026.2
20260906134600 65 279 0.0 6.0 0.00 0.00 0.00 45 1026.2
20260906134045 65 0 0.0 6.0 0.00 0.00 0.00 46 1026.2
20260906133545 64 0 1.0 6.0 0.00 0.00 0.00 47 1026.2
20260906133121 64 0 0.0 6.0 0.00 0.00 0.00 48 1026.2
20260906132546 63 0 0.0 6.0 0.00 0.00 0.00 49 1026.2
20260906132046 62 0 0.0 0.0 0.00 0.00 0.00 49 1026.1
20260906131613 62 0 0.0 0.0 0.00 0.00 0.00 50 1026.1
20260906131045 62 0 0.0 0.0 0.00 0.00 0.00 51 1026.1
20260906130545 61 0 0.0 4.0 0.00 0.00 0.00 50 1026.0
20260906130056 61 0 0.0 4.0 0.00 0.00 0.00 51 1025.9
20260906125548 61 0 0.0 4.0 0.00 0.00 0.00 51 1025.9
20260906125048 61 0 0.0 0.0 0.00 0.00 0.00 51 1025.8
20260906124600 61 0 0.0 0.0 0.00 0.00 0.00 50 1025.8
20260906124045 61 0 0.0 0.0 0.00 0.00 0.00 50 1025.8
20260906123546 61 0 0.0 3.0 0.00 0.00 0.00 50 1025.7
20260906123057 61 0 0.0 5.0 0.00 0.00 0.00 50 1025.7
20260906122545 61 0 0.0 6.0 0.00 0.00 0.00 51 1025.7
20260906122045 61 0 0.0 6.0 0.00 0.00 0.00 52 1025.7
20260906121555 60 279 0.0 3.0 0.00 0.00 0.00 53 1025.7
20260906121045 59 0 0.0 3.0 0.00 0.00 0.00 54 1025.9
20260906120545 58 279 0.0 3.0 0.00 0.00 0.00 56 1025.9
20260906120105 58 0 0.0 0.0 0.00 0.00 0.00 57 1025.8
20260906115545 57 0 0.0 0.0 0.00 0.00 0.00 58 1025.7
20260906115045 57 0 0.0 0.0 0.00 0.00 0.00 59 1025.7
20260906114559 57 0 0.0 0.0 0.00 0.00 0.00 59 1025.8
20260906114044 56 0 0.0 0.0 0.00 0.00 0.00 60 1025.8
20260906113545 57 0 0.0 0.0 0.00 0.00 0.00 60 1025.8
20260906113057 57 0 0.0 0.0 0.00 0.00 0.00 61 1025.7
20260906112548 57 0 0.0 0.0 0.00 0.00 0.00 60 1025.7
20260906112045 57 0 0.0 0.0 0.00 0.00 0.00 60 1025.8
20260906111552 57 0 0.0 0.0 0.00 0.00 0.00 60 1025.7
20260906111045 58 0 0.0 0.0 0.00 0.00 0.00 60 1025.8
20260906110545 58 0 0.0 0.0 0.00 0.00 0.00 60 1025.7
20260906110052 58 0 0.0 0.0 0.00 0.00 0.00 60 1025.7
20260906105546 58 0 0.0 0.0 0.00 0.00 0.00 60 1025.7
20260906105044 57 0 0.0 0.0 0.00 0.00 0.00 60 1025.7
20260906104558 57 0 0.0 0.0 0.00 0.00 0.00 60 1025.7
20260906104045 57 0 0.0 0.0 0.00 0.00 0.00 60 1025.8
20260906103547 58 0 0.0 0.0 0.00 0.00 0.00 60 1025.7
20260906103058 58 0 0.0 0.0 0.00 0.00 0.00 60 1025.8
20260906102546 58 0 0.0 0.0 0.00 0.00 0.00 59 1025.7
20260906102045 58 0 0.0 0.0 0.00 0.00 0.00 59 1025.7
20260906101603 58 0 0.0 0.0 0.00 0.00 0.00 59 1025.8
20260906101045 58 0 0.0 0.0 0.00 0.00 0.00 59 1025.8
20260906100547 59 0 0.0 0.0 0.00 0.00 0.00 59 1025.7
20260906100111 59 0 0.0 0.0 0.00 0.00 0.00 59 1025.7
20260906095549 59 0 0.0 0.0 0.00 0.00 0.00 59 1025.7
20260906095045 59 0 0.0 0.0 0.00 0.00 0.00 58 1025.7
20260906094604 59 0 0.0 0.0 0.00 0.00 0.00 58 1025.7
20260906094044 59 0 0.0 0.0 0.00 0.00 0.00 58 1025.7
20260906093546 60 0 0.0 0.0 0.00 0.00 0.00 57 1025.9
20260906093059 60 0 0.0 0.0 0.00 0.00 0.00 58 1026.0
20260906092545 60 0 0.0 0.0 0.00 0.00 0.00 57 1026.0
20260906092045 61 0 0.0 0.0 0.00 0.00 0.00 57 1026.0
20260906091552 61 0 0.0 0.0 0.00 0.00 0.00 57 1025.9
20260906091045 62 0 0.0 0.0 0.00 0.00 0.00 55 1025.9
20260906090545 62 0 0.0 0.0 0.00 0.00 0.00 54 1025.9
20260906090115 62 0 0.0 0.0 0.00 0.00 0.00 53 1025.7
20260906085545 63 0 0.0 0.0 0.00 0.00 0.00 52 1025.7
20260906085047 63 0 0.0 0.0 0.00 0.00 0.00 53 1025.6
20260906084559 63 0 0.0 0.0 0.00 0.00 0.00 53 1025.5
20260906084045 63 0 0.0 2.0 0.00 0.00 0.00 53 1025.4
20260906083546 63 0 0.0 2.0 0.00 0.00 0.00 53 1025.5
20260906083056 63 0 0.0 2.0 0.00 0.00 0.00 54 1025.5
20260906082545 63 0 0.0 2.0 0.00 0.00 0.00 54 1025.6
20260906082045 62 0 0.0 2.0 0.00 0.00 0.00 55 1025.6
20260906081556 62 0 0.0 2.0 0.00 0.00 0.00 56 1025.6
20260906081045 62 0 0.0 0.0 0.00 0.00 0.00 56 1025.7
20260906080545 62 0 0.0 2.0 0.00 0.00 0.00 57 1025.7
20260906080104 62 0 0.0 2.0 0.00 0.00 0.00 58 1025.7
20260906075545 62 0 0.0 1.0 0.00 0.00 0.00 58 1026.0
20260906075047 62 0 0.0 0.0 0.00 0.00 0.00 56 1026.1
20260906074600 62 0 0.0 0.0 0.00 0.00 0.00 56 1026.1
20260906074044 63 0 0.0 0.0 0.00 0.00 0.00 56 1026.0
20260906073545 63 0 0.0 0.0 0.00 0.00 0.00 56 1026.0
20260906073057 63 0 0.0 0.0 0.00 0.00 0.00 55 1026.1
20260906072545 63 0 0.0 0.0 0.00 0.00 0.00 55 1026.1
20260906072044 63 0 0.0 0.0 0.00 0.00 0.00 55 1026.1
20260906071555 64 0 0.0 3.0 0.00 0.00 0.00 56 1026.1
20260906071045 64 0 0.0 3.0 0.00 0.00 0.00 55 1026.3
20260906070545 64 0 0.0 3.0 0.00 0.00 0.00 55 1026.2
20260906070054 64 0 0.0 0.0 0.00 0.00 0.00 54 1026.2
20260906065545 64 0 0.0 4.0 0.00 0.00 0.00 54 1026.0
20260906065045 64 0 0.0 4.0 0.00 0.00 0.00 55 1026.0
20260906064559 64 0 0.0 4.0 0.00 0.00 0.00 55 1026.1
20260906064045 64 0 0.0 1.0 0.00 0.00 0.00 54 1026.2
20260906063545 64 0 0.0 0.0 0.00 0.00 0.00 54 1026.2
20260906063057 65 0 0.0 4.0 0.00 0.00 0.00 54 1026.2
20260906062547 65 0 0.0 4.0 0.00 0.00 0.00 53 1026.2
20260906062045 65 0 0.0 5.0 0.00 0.00 0.00 52 1026.3
20260906061556 66 0 0.0 5.0 0.00 0.00 0.00 52 1026.3
20260906061049 66 0 0.0 4.0 0.00 0.00 0.00 51 1026.3
20260906060545 66 0 0.0 1.0 0.00 0.00 0.00 51 1026.4
20260906060130 67 0 0.0 0.0 0.00 0.00 0.00 49 1026.4
20260906055548 67 0 0.0 0.0 0.00 0.00 0.00 48 1026.5
20260906055046 67 0 0.0 0.0 0.00 0.00 0.00 48 1026.6
20260906054559 67 0 0.0 0.0 0.00 0.00 0.00 48 1026.8
20260906054045 67 0 0.0 0.0 0.00 0.00 0.00 47 1026.8
20260906053545 68 0 0.0 0.0 0.00 0.00 0.00 47 1026.8
20260906053058 68 0 0.0 0.0 0.00 0.00 0.00 46 1027.0
20260906052548 68 0 0.0 0.0 0.00 0.00 0.00 46 1027.0
20260906052046 68 0 0.0 3.0 0.00 0.00 0.00 46 1027.1
20260906051558 68 0 0.0 4.0 0.00 0.00 0.00 46 1027.0
20260906051045 68 269 0.0 6.0 0.00 0.00 0.00 47 1026.9
20260906050544 68 233 1.0 10.0 0.00 0.00 0.00 47 1026.7
20260906050054 67 237 1.0 10.0 0.00 0.00 0.00 47 1026.6
20260906045545 67 260 1.0 10.0 0.00 0.00 0.00 48 1026.6
20260906045045 67 0 0.0 3.0 0.00 0.00 0.00 49 1026.5
20260906044559 67 282 0.0 4.0 0.00 0.00 0.00 49 1026.4
20260906044044 67 0 0.0 4.0 0.00 0.00 0.00 49 1026.4
20260906043547 67 0 0.0 4.0 0.00 0.00 0.00 48 1026.4
20260906043056 67 0 0.0 6.0 0.00 0.00 0.00 48 1026.4
20260906042545 67 322 0.0 9.0 0.00 0.00 0.00 47 1026.3
20260906042046 67 0 1.0 10.0 0.00 0.00 0.00 48 1026.3
20260906041554 67 280 1.0 10.0 0.00 0.00 0.00 48 1026.3
20260906041048 67 0 2.0 9.0 0.00 0.00 0.00 48 1026.3
20260906040545 67 236 0.0 10.0 0.00 0.00 0.00 47 1026.4
20260906040104 68 0 1.0 10.0 0.00 0.00 0.00 46 1026.3
20260906035543 68 294 2.0 13.0 0.00 0.00 0.00 46 1026.3
20260906035046 67 213 2.0 13.0 0.00 0.00 0.00 46 1026.5
20260906034559 67 302 2.0 13.0 0.00 0.00 0.00 47 1026.4
20260906034045 66 344 1.0 5.0 0.00 0.00 0.00 48 1026.3
20260906033548 66 0 0.0 5.0 0.00 0.00 0.00 48 1026.0
20260906033101 66 0 0.0 5.0 0.00 0.00 0.00 49 1025.9
20260906032544 66 0 0.0 5.0 0.00 0.00 0.00 50 1025.9
20260906032044 66 286 0.0 5.0 0.00 0.00 0.00 50 1025.9
20260906031603 66 0 0.0 5.0 0.00 0.00 0.00 51 1025.8
20260906031045 66 0 0.0 6.0 0.00 0.00 0.00 51 1025.8
20260906030546 65 235 0.0 12.0 0.00 0.00 0.00 52 1025.9
20260906030059 65 360 2.0 12.0 0.00 0.00 0.00 52 1025.8
20260906025624 65 0 1.0 11.0 0.00 0.00 0.00 52 1025.7
20260906025045 66 0 0.0 11.0 0.00 0.00 0.00 52 1025.6
20260906024608 66 258 1.0 11.0 0.00 0.00 0.00 52 1025.6
20260906024044 66 0 0.0 4.0 0.00 0.00 0.00 51 1025.5
20260906023545 66 263 0.0 2.0 0.00 0.00 0.00 50 1025.3
20260906023102 67 0 0.0 3.0 0.00 0.00 0.00 49 1025.3
20260906022545 67 0 0.0 6.0 0.00 0.00 0.00 48 1025.3
20260906022047 67 244 0.0 7.0 0.00 0.00 0.00 48 1025.4
20260906021607 68 244 1.0 7.0 0.00 0.00 0.00 48 1025.3
20260906021050 68 0 0.0 8.0 0.00 0.00 0.00 47 1025.2
20260906020544 69 0 0.0 8.0 0.00 0.00 0.00 45 1025.2
20260906020108 69 360 0.0 1.0 0.00 0.00 0.00 45 1025.3
20260906015545 70 0 0.0 4.0 0.00 0.00 0.00 43 1025.1
20260906015044 70 0 0.0 4.0 0.00 0.00 0.00 43 1024.9
20260906014611 70 0 0.0 4.0 0.00 0.00 0.00 47 1024.9
20260906014044 70 0 0.0 5.0 0.00 0.00 0.00 44 1025.2
20260906013544 70 0 0.0 12.0 0.00 0.00 0.00 44 1025.3
20260906013100 71 0 0.0 12.0 0.00 0.00 0.00 42 1025.4
20260906012544 71 0 3.0 12.0 0.00 0.00 0.00 42 1025.5
20260906012044 71 219 0.0 7.0 0.00 0.00 0.00 40 1025.4
20260906011613 71 0 0.0 6.0 0.00 0.00 0.00 39 1025.2
20260906011044 72 0 0.0 6.0 0.00 0.00 0.00 39 1025.2
20260906010544 72 0 0.0 1.0 0.00 0.00 0.00 38 1025.2
20260906010105 72 0 0.0 1.0 0.00 0.00 0.00 37 1025.3
20260906005544 73 0 0.0 2.0 0.00 0.00 0.00 36 1025.3
20260906005044 73 0 0.0 2.0 0.00 0.00 0.00 36 1025.4
20260906004605 73 0 0.0 3.0 0.00 0.00 0.00 35 1025.4
20260906004044 74 0 0.0 3.0 0.00 0.00 0.00 35 1025.3
20260906003545 74 0 0.0 3.0 0.00 0.00 0.00 34 1025.5
20260906003113 75 0 0.0 3.0 0.00 0.00 0.00 34 1025.4
20260906002544 75 0 0.0 8.0 0.00 0.00 0.00 34 1025.3
20260906002048 75 0 0.0 8.0 0.00 0.00 0.00 34 1025.2
20260906001602 75 0 0.0 3.0 0.00 0.00 0.00 34 1025.2
20260906001044 75 0 0.0 3.0 0.00 0.00 0.00 34 1025.2
20260906000544 75 0 0.0 6.0 0.00 0.00 0.00 34 1025.2
20260906000108 75 0 0.0 6.0 0.00 0.00 0.00 34 1025.3
20260905235545 76 0 0.0 6.0 0.00 0.00 0.00 34 1025.2
20260905235044 76 319 1.0 5.0 0.00 0.00 0.00 33 1025.2
20260905234553 76 0 0.0 8.0 0.00 0.00 0.00 32 1025.1
20260905234044 77 13 1.0 8.0 0.00 0.00 0.00 31 1025.1
20260905233545 77 19 1.0 5.0 0.00 0.00 0.00 31 1025.1
20260905233123 76 323 0.0 3.0 0.00 0.00 0.00 30 1025.2
20260905232545 77 0 0.0 2.0 0.00 0.00 0.00 30 1025.2
20260905232045 77 0 0.0 2.0 0.00 0.00 0.00 29 1025.2
20260905231558 77 0 0.0 5.0 0.00 0.00 0.00 29 1025.0
20260905231044 77 0 1.0 5.0 0.00 0.00 0.00 28 1025.0
20260905230544 78 55 0.0 3.0 0.00 0.00 0.00 28 1024.9
20260905230058 78 0 0.0 5.0 0.00 0.00 0.00 28 1024.9
20260905225544 78 0 0.0 7.0 0.00 0.00 0.00 28 1024.9
20260905225045 78 52 2.0 7.0 0.00 0.00 0.00 28 1024.8
20260905224615 78 0 0.0 5.0 0.00 0.00 0.00 28 1024.8
20260905224044 78 0 0.0 7.0 0.00 0.00 0.00 28 1024.8
20260905223545 78 49 3.0 7.0 0.00 0.00 0.00 27 1024.8
20260905223106 78 0 0.0 6.0 0.00 0.00 0.00 28 1024.8
20260905222545 78 0 1.0 5.0 0.00 0.00 0.00 28 1024.8
20260905222046 79 47 2.0 5.0 0.00 0.00 0.00 27 1024.8
20260905221607 79 0 0.0 5.0 0.00 0.00 0.00 27 1024.8
20260905221046 79 0 1.0 5.0 0.00 0.00 0.00 27 1024.8
20260905220545 80 15 0.0 6.0 0.00 0.00 0.00 26 1024.8
20260905220105 80 0 1.0 6.0 0.00 0.00 0.00 25 1024.9
20260905215547 80 0 0.0 1.0 0.00 0.00 0.00 26 1024.9
20260905215044 80 0 0.0 7.0 0.00 0.00 0.00 26 1025.0
20260905214557 80 0 1.0 7.0 0.00 0.00 0.00 26 1025.0
20260905214045 79 0 0.0 9.0 0.00 0.00 0.00 26 1025.2
20260905213546 80 0 0.0 9.0 0.00 0.00 0.00 26 1025.1
20260905213056 80 49 2.0 6.0 0.00 0.00 0.00 26 1025.2
20260905212545 79 38 1.0 11.0 0.00 0.00 0.00 26 1025.2
20260905212044 79 48 3.0 11.0 0.00 0.00 0.00 27 1025.3
20260905211551 79 43 2.0 11.0 0.00 0.00 0.00 27 1025.2
20260905211044 79 0 1.0 6.0 0.00 0.00 0.00 27 1025.3
20260905210543 78 57 1.0 6.0 0.00 0.00 0.00 28 1025.4
20260905210053 78 0 0.0 6.0 0.00 0.00 0.00 27 1025.3
20260905205544 78 46 0.0 6.0 0.00 0.00 0.00 27 1025.5
20260905205048 78 46 1.0 9.0 0.00 0.00 0.00 27 1025.5
20260905204556 78 0 2.0 9.0 0.00 0.00 0.00 27 1025.5
20260905204044 78 42 0.0 11.0 0.00 0.00 0.00 27 1025.7
20260905203548 78 66 3.0 12.0 0.00 0.00 0.00 27 1025.8
20260905203053 79 56 5.0 12.0 0.00 0.00 0.00 26 1025.9
20260905202544 79 0 2.0 12.0 0.00 0.00 0.00 26 1025.9
20260905202044 79 48 2.0 13.0 0.00 0.00 0.00 26 1025.9
20260905201606 79 0 4.0 13.0 0.00 0.00 0.00 26 1026.0
20260905201048 79 55 2.0 10.0 0.00 0.00 0.00 26 1025.9
20260905200544 79 38 2.0 12.0 0.00 0.00 0.00 26 1026.0
20260905195547 80 56 2.0 11.0 0.00 0.00 0.00 26 1025.9
20260905195044 80 34 3.0 15.0 0.00 0.00 0.00 27 1025.9
20260905194557 79 42 6.0 15.0 0.00 0.00 0.00 27 1026.0
20260905194048 79 47 4.0 15.0 0.00 0.00 0.00 27 1026.0
20260905193544 78 48 2.0 11.0 0.00 0.00 0.00 28 1026.0
20260905193051 78 0 3.0 13.0 0.00 0.00 0.00 28 1026.0
20260905192544 78 40 5.0 13.0 0.00 0.00 0.00 28 1026.1
20260905192046 78 50 2.0 14.0 0.00 0.00 0.00 28 1026.2
20260905191610 78 44 3.0 14.0 0.00 0.00 0.00 28 1026.2
20260905191046 78 55 3.0 13.0 0.00 0.00 0.00 28 1026.2
20260905190543 78 55 2.0 12.0 0.00 0.00 0.00 27 1026.2
20260905190132 79 67 4.0 12.0 0.00 0.00 0.00 27 1026.2
20260905185549 78 51 2.0 14.0 0.00 0.00 0.00 28 1026.2
20260905185044 78 0 3.0 14.0 0.00 0.00 0.00 29 1026.4
20260905184620 79 46 6.0 12.0 0.00 0.00 0.00 28 1026.3
20260905184043 80 41 2.0 10.0 0.00 0.00 0.00 27 1026.2
20260905183549 80 38 2.0 16.0 0.00 0.00 0.00 28 1026.1
20260905183057 79 44 3.0 16.0 0.00 0.00 0.00 27 1026.2
20260905182547 80 42 3.0 13.0 0.00 0.00 0.00 27 1026.2
20260905182046 80 28 6.0 13.0 0.00 0.00 0.00 27 1026.2
20260905181603 80 28 4.0 13.0 0.00 0.00 0.00 28 1026.3
20260905181044 80 55 6.0 13.0 0.00 0.00 0.00 29 1026.2
20260905180545 80 55 4.0 11.0 0.00 0.00 0.00 30 1026.3
20260905180100 79 40 3.0 11.0 0.00 0.00 0.00 29 1026.4
20260905175546 78 61 1.0 12.0 0.00 0.00 0.00 31 1026.3
20260905175048 79 51 1.0 13.0 0.00 0.00 0.00 29 1026.3
20260905174559 79 0 2.0 13.0 0.00 0.00 0.00 28 1026.3
20260905174044 80 52 1.0 8.0 0.00 0.00 0.00 26 1026.2
20260905173545 80 51 0.0 8.0 0.00 0.00 0.00 28 1026.2
20260905173057 80 0 0.0 8.0 0.00 0.00 0.00 27 1026.3
20260905172544 81 40 0.0 6.0 0.00 0.00 0.00 26 1026.3
20260905172046 81 200 0.0 4.0 0.00 0.00 0.00 26 1026.2
20260905171551 81 0 0.0 5.0 0.00 0.00 0.00 23 1026.3
20260905171044 80 0 0.0 5.0 0.00 0.00 0.00 24 1026.3
20260905170553 80 0 0.0 3.0 0.00 0.00 0.00 24 1026.2
20260905170113 80 0 0.0 3.0 0.00 0.00 0.00 23 1026.1
20260905165545 80 0 0.0 4.0 0.00 0.00 0.00 23 1025.9
20260905165046 80 0 0.0 10.0 0.00 0.00 0.00 24 1026.0
20260905164559 80 250 0.0 10.0 0.00 0.00 0.00 24 1026.1
20260905164045 80 263 0.0 6.0 0.00 0.00 0.00 25 1026.1
20260905163544 79 0 1.0 6.0 0.00 0.00 0.00 25 1026.0
20260905163052 79 0 0.0 8.0 0.00 0.00 0.00 25 1025.9
20260905162546 78 271 0.0 8.0 0.00 0.00 0.00 26 1026.0
20260905162045 78 0 0.0 5.0 0.00 0.00 0.00 26 1025.9
20260905161553 78 220 0.0 7.0 0.00 0.00 0.00 26 1025.9
20260905161045 78 219 1.0 9.0 0.00 0.00 0.00 27 1025.9
20260905160544 78 0 2.0 9.0 0.00 0.00 0.00 27 1025.9
20260905160100 78 264 1.0 10.0 0.00 0.00 0.00 27 1026.0
20260905155548 77 207 1.0 10.0 0.00 0.00 0.00 28 1026.1
20260905155046 77 213 2.0 9.0 0.00 0.00 0.00 28 1026.1
20260905154557 77 319 2.0 8.0 0.00 0.00 0.00 29 1026.0
20260905154046 76 306 2.0 8.0 0.00 0.00 0.00 29 1026.0
20260905153545 76 213 1.0 7.0 0.00 0.00 0.00 29 1026.0
20260905153056 76 0 1.0 7.0 0.00 0.00 0.00 30 1025.9
20260905152546 76 238 1.0 8.0 0.00 0.00 0.00 30 1026.0
20260905152045 75 0 2.0 9.0 0.00 0.00 0.00 30 1025.9
20260905151603 75 0 2.0 9.0 0.00 0.00 0.00 31 1025.9
20260905151043 75 291 1.0 8.0 0.00 0.00 0.00 31 1025.9
20260905150544 74 257 2.0 8.0 0.00 0.00 0.00 32 1025.9
20260905150058 74 0 1.0 10.0 0.00 0.00 0.00 32 1025.9